Weather History for Sterling, IL

Change the Weather History Date:

Saturday, February 9, 2013

  Actual Average Record
Temperature  
Mean Temperature 26 °F -  
Max Temperature 33 °F 32 °F 57 °F (2009)
Min Temperature 19 °F 18 °F -7 °F (2014)
Degree Days  
Heating Degree Days 39    
Moisture  
Dew Point 24 °F    
Average Humidity 82    
Maximum Humidity 93    
Minimum Humidity 74    
Precipitation  
Precipitation 0.00 in - - ()
Sea Level Pressure  
Sea Level Pressure 30.24 in    
Wind  
Wind Speed 6 mph (SE)    
Max Wind Speed 10 mph    
Max Gust Speed 20 mph    
Visibility 9 miles    
Events      
Averages and records for this station are not official NWS values.
T = Trace of Precipitation, MM = Missing Value Source: NWS Daily Summary

Daily Weather History Graph

Daily Weather History Graph

Search for Another Location

Airport:

Trip Planner

Search our weather history database for the weather conditions in past years. The results will help you decide how hot, cold, wet, or windy it might be!

Date:

Astronomy

Feb. 09, 2013 Rise Set
Actual Time 7:01 AM CST 5:24 PM CST
Civil Twilight 6:32 AM CST 5:53 PM CST
Nautical Twilight 5:59 AM CST 6:26 PM CST
Astronomical Twilight 5:27 AM CST 6:58 PM CST
Moon 6:13 AM CST (2/9) 5:08 PM CST (2/9)
Length of Visible Light 11h 20m
Length of Day
10h 23m
Waning Crescent, 0% of the Moon is Illuminated
Feb 9
Waning Crescent
Feb 10
New
Feb 17
First Quarter
Feb 25
Full
Mar 4
Last Quarter

Hourly Weather History & Observations

Time (CST) Temp. Windchill Dew Point Humidity Pressure Visibility Wind Dir Wind Speed Gust Speed Precip Events Conditions
12:15 AM 19.4 °F 9.5 °F 15.8 °F 86% 30.36 in 9.0 mi ESE 8.1 mph - N/A   Mostly Cloudy
12:35 AM 21.2 °F 13.6 °F 17.6 °F 86% 30.37 in 10.0 mi SE 5.8 mph - N/A   Overcast
12:55 AM 21.2 °F 16.4 °F 17.6 °F 86% 30.38 in 10.0 mi SE 3.5 mph - N/A   Overcast
1:15 AM 21.2 °F 16.4 °F 19.4 °F 93% 30.38 in 10.0 mi ESE 3.5 mph - N/A   Overcast
1:35 AM 24.8 °F 20.5 °F 19.4 °F 80% 30.37 in 10.0 mi SSE 3.5 mph - N/A   Overcast
1:55 AM 24.8 °F 17.9 °F 21.2 °F 86% 30.37 in 10.0 mi SE 5.8 mph - N/A   Overcast
2:15 AM 24.8 °F 17.9 °F 21.2 °F 86% 30.37 in 10.0 mi South 5.8 mph - N/A   Overcast
2:35 AM 24.8 °F 16.9 °F 19.4 °F 80% 30.37 in 10.0 mi SSE 6.9 mph - N/A   Overcast
2:55 AM 24.8 °F 17.9 °F 21.2 °F 86% 30.36 in 10.0 mi South 5.8 mph - N/A   Overcast
3:15 AM 24.8 °F 20.5 °F 21.2 °F 86% 30.35 in 10.0 mi SSE 3.5 mph - N/A   Overcast
3:35 AM 24.8 °F 20.5 °F 21.2 °F 86% 30.35 in 10.0 mi South 3.5 mph - N/A   Overcast
3:55 AM 24.8 °F 19.1 °F 21.2 °F 86% 30.35 in 10.0 mi SSE 4.6 mph - N/A   Overcast
4:15 AM 26.6 °F 21.2 °F 21.2 °F 80% 30.35 in 10.0 mi South 4.6 mph - N/A   Overcast
4:35 AM 26.6 °F 21.2 °F 21.2 °F 80% 30.35 in 10.0 mi South 4.6 mph - N/A   Overcast
4:55 AM 26.6 °F 20.0 °F 21.2 °F 80% 30.35 in 10.0 mi SSE 5.8 mph - N/A   Overcast
5:15 AM 26.6 °F 20.0 °F 21.2 °F 80% 30.36 in 10.0 mi SSE 5.8 mph - N/A   Overcast
5:35 AM 26.6 °F 20.0 °F 21.2 °F 80% 30.34 in 10.0 mi SSE 5.8 mph - N/A   Overcast
6:15 AM 26.6 °F 18.2 °F 21.2 °F 80% 30.34 in 10.0 mi SSE 8.1 mph - N/A   Overcast
6:35 AM 26.6 °F 17.5 °F 21.2 °F 80% 30.35 in 10.0 mi SSE 9.2 mph - N/A   Overcast
6:55 AM 26.6 °F 19.1 °F 21.2 °F 80% 30.34 in 10.0 mi SSE 6.9 mph - N/A   Overcast
7:15 AM 26.6 °F 17.5 °F 21.2 °F 80% 30.35 in 10.0 mi SE 9.2 mph - N/A   Overcast
7:35 AM 26.6 °F 21.2 °F 21.2 °F 80% 30.35 in 10.0 mi SSE 4.6 mph - N/A   Overcast
7:55 AM 26.6 °F 20.0 °F 21.2 °F 80% 30.35 in 10.0 mi South 5.8 mph - N/A   Overcast
8:15 AM 26.6 °F 19.1 °F 21.2 °F 80% 30.34 in 10.0 mi South 6.9 mph - N/A   Overcast
8:35 AM 28.4 °F 21.2 °F 21.2 °F 74% 30.34 in 10.0 mi South 6.9 mph - N/A   Overcast
8:55 AM 28.4 °F 22.2 °F 21.2 °F 74% 30.33 in 10.0 mi South 5.8 mph - N/A   Overcast
9:15 AM 28.4 °F 19.1 °F 23.0 °F 80% 30.33 in 10.0 mi South 10.4 mph - N/A   Overcast
9:35 AM 28.4 °F 19.7 °F 21.2 °F 74% 30.33 in 10.0 mi SSE 9.2 mph - N/A   Overcast
9:55 AM 28.4 °F 20.4 °F 23.0 °F 80% 30.32 in 10.0 mi South 8.1 mph - N/A   Overcast
10:15 AM 28.4 °F 21.2 °F 23.0 °F 80% 30.32 in 10.0 mi South 6.9 mph - N/A   Overcast
10:35 AM 28.4 °F 19.7 °F 21.2 °F 74% 30.32 in 10.0 mi SSE 9.2 mph - N/A   Overcast
10:55 AM 30.2 °F 21.9 °F 23.0 °F 75% 30.31 in 10.0 mi SSE 9.2 mph - N/A   Overcast
11:15 AM 30.2 °F 22.6 °F 23.0 °F 75% 30.30 in 10.0 mi South 8.1 mph - N/A   Overcast
11:35 AM 30.2 °F 23.4 °F 23.0 °F 75% 30.28 in 10.0 mi SSE 6.9 mph 16.1 mph N/A   Overcast
11:55 AM 30.2 °F 21.3 °F 24.8 °F 80% 30.26 in 10.0 mi SSE 10.4 mph 16.1 mph N/A   Overcast
12:15 PM 30.2 °F 21.3 °F 24.8 °F 80% 30.24 in 10.0 mi SSE 10.4 mph 18.4 mph N/A   Overcast
12:35 PM 32.0 °F 24.2 °F 24.8 °F 75% 30.24 in 10.0 mi SSE 9.2 mph - N/A   Overcast
12:55 PM 32.0 °F 24.2 °F 24.8 °F 75% 30.22 in 10.0 mi SSE 9.2 mph 19.6 mph N/A   Overcast
1:15 PM 33.8 °F 26.4 °F 26.6 °F 75% 30.22 in 10.0 mi SSE 9.2 mph - N/A   Overcast
1:35 PM 32.0 °F 23.6 °F 24.8 °F 75% 30.21 in 10.0 mi South 10.4 mph 18.4 mph N/A   Mostly Cloudy
1:55 PM 32.0 °F 24.8 °F 24.8 °F 75% 30.21 in 10.0 mi SSE 8.1 mph - N/A   Mostly Cloudy
2:15 PM 33.8 °F 28.6 °F 26.6 °F 75% 30.20 in 10.0 mi South 5.8 mph - N/A   Overcast
2:35 PM 33.8 °F 26.4 °F 26.6 °F 75% 30.19 in 10.0 mi SSE 9.2 mph - N/A   Overcast
2:55 PM 33.8 °F 27.7 °F 26.6 °F 75% 30.19 in 10.0 mi SSE 6.9 mph - N/A   Overcast
3:15 PM 33.8 °F 27.0 °F 26.6 °F 75% 30.17 in 10.0 mi SSE 8.1 mph - N/A   Overcast
3:35 PM 33.8 °F 28.6 °F 26.6 °F 75% 30.17 in 10.0 mi SE 5.8 mph - N/A   Overcast
3:55 PM 33.8 °F 28.6 °F 28.4 °F 81% 30.16 in 10.0 mi SE 5.8 mph - N/A   Overcast
4:15 PM 33.8 °F 27.7 °F 26.6 °F 75% 30.15 in 10.0 mi SE 6.9 mph - N/A   Overcast
4:55 PM 33.8 °F 27.7 °F 26.6 °F 75% 30.14 in 10.0 mi SE 6.9 mph - N/A   Mostly Cloudy
5:15 PM 32.0 °F 25.6 °F 26.6 °F 80% 30.13 in 10.0 mi SE 6.9 mph - N/A   Scattered Clouds
5:35 PM 30.2 °F 25.4 °F 26.6 °F 86% 30.13 in 10.0 mi ESE 4.6 mph - N/A   Partly Cloudy
5:55 PM 30.2 °F 24.3 °F 26.6 °F 86% 30.12 in 10.0 mi ESE 5.8 mph - N/A   Clear
6:15 PM 30.2 °F 24.3 °F 26.6 °F 86% 30.11 in 9.0 mi ESE 5.8 mph - N/A   Clear
6:35 PM 30.2 °F 21.9 °F 26.6 °F 86% 30.11 in 10.0 mi ESE 9.2 mph - N/A   Clear
7:35 PM 30.2 °F 25.4 °F 26.6 °F 86% 30.10 in 10.0 mi SE 4.6 mph - N/A   Clear
7:55 PM 30.2 °F 24.3 °F 26.6 °F 86% 30.10 in 10.0 mi ESE 5.8 mph - N/A   Clear
8:15 PM 30.2 °F 25.4 °F 26.6 °F 86% 30.10 in 9.0 mi ESE 4.6 mph - N/A   Clear
8:35 PM 30.2 °F 23.4 °F 28.4 °F 93% 30.09 in 8.0 mi East 6.9 mph - N/A   Clear
8:55 PM 28.4 °F 21.2 °F 26.6 °F 93% 30.08 in 7.0 mi East 6.9 mph - N/A   Clear
9:15 PM 28.4 °F 21.2 °F 26.6 °F 93% 30.07 in 7.0 mi East 6.9 mph - N/A   Partly Cloudy
9:35 PM 28.4 °F 21.2 °F 24.8 °F 86% 30.07 in 6.0 mi East 6.9 mph - N/A   Clear
9:55 PM 28.4 °F 22.2 °F 24.8 °F 86% 30.06 in 5.0 mi East 5.8 mph - N/A   Clear
10:15 PM 26.6 °F 20.0 °F 24.8 °F 93% 30.05 in 5.0 mi East 5.8 mph - N/A   Clear
10:35 PM 26.6 °F 21.2 °F 24.8 °F 93% 30.04 in 5.0 mi East 4.6 mph - N/A   Clear
10:55 PM 28.4 °F 22.2 °F 26.6 °F 93% 30.03 in 5.0 mi ESE 5.8 mph - N/A   Clear
11:15 PM 28.4 °F 23.3 °F 26.6 °F 93% 30.03 in 7.0 mi ESE 4.6 mph - N/A   Clear
11:35 PM 28.4 °F 23.3 °F 26.6 °F 93% 30.03 in 8.0 mi ESE 4.6 mph - N/A   Scattered Clouds
11:55 PM 30.2 °F 25.4 °F 28.4 °F 93% 30.03 in 10.0 mi ESE 4.6 mph - N/A   Mostly Cloudy